Theta_e
302 297 295 298 301 303 302 302 301 306 310 308 308 308 311 315 314 315 316 317 318 320 325 326 332 335 334 343 348 353 354 357 351 349 346 344 340 341 342 343 345 343 343 343
297 295 301 302 302 301 301 300 300 305 308 308 307 307 312 314 315 316 318 319 319 320 321 323 328 331 341 343 345 351 351 354 351 350 347 345 341 338 339 341 344 343 342 342
294 298 302 301 299 299 300 299 300 300 305 307 306 304 308 312 315 316 317 318 319 318 319 321 324 332 338 340 343 344 347 353 350 350 347 349 344 343 340 342 341 342 341 340
295 300 298 299 298 300 296 302 302 301 300 297 306 296 306 311 311 314 315 317 318 320 322 323 325 335 337 338 341 344 348 349 349 348 344 341 335 336 337 338 339 340 341 338
291 295 296 295 299 302 299 303 302 302 300 301 300 298 302 308 307 310 313 315 317 319 321 320 323 335 336 338 340 343 346 346 346 345 342 341 340 340 342 339 339 339 340 338
294 298 297 299 301 302 304 301 301 302 301 294 300 299 299 303 306 310 314 315 318 319 321 323 332 334 335 337 340 342 342 342 341 345 344 341 340 341 338 337 336 337 338 338
293 293 297 299 297 301 301 299 292 290 292 291 301 299 302 308 310 311 313 314 318 324 324 329 330 331 333 335 337 339 338 337 339 341 340 343 342 341 339 339 336 336 335 334
287 287 293 298 297 297 298 299 293 286 288 292 300 296 300 311 313 315 314 316 321 325 328 329 330 330 331 334 336 336 337 336 337 338 339 342 343 337 339 340 337 336 335 335
288 289 299 297 300 300 298 294 301 297 298 294 298 303 308 311 311 313 313 316 323 325 327 328 329 330 331 334 335 335 335 335 336 337 340 340 341 337 337 339 338 336 337 334
292 285 295 299 299 300 299 302 294 297 289 290 296 298 300 307 309 312 312 316 323 326 326 327 329 331 333 333 335 336 336 335 336 336 338 337 335 338 338 339 336 335 335 335
294 289 288 295 295 294 297 296 298 300 298 292 292 297 312 310 311 312 313 316 323 324 325 327 329 332 332 333 334 336 335 334 334 336 337 335 335 333 332 335 332 335 336 331
295 291 287 292 300 300 300 298 299 294 294 298 298 298 312 313 314 316 315 320 323 325 325 326 328 329 330 331 332 333 333 331 333 334 335 333 334 334 335 334 331 335 331 335
293 290 285 289 295 300 297 299 301 302 304 298 294 298 312 312 314 316 318 322 323 324 325 326 327 328 328 330 331 331 330 330 331 332 332 333 333 336 336 334 332 332 332 333
295 290 288 285 290 294 294 297 300 302 296 298 299 301 307 310 313 315 321 322 323 323 325 325 326 327 329 330 330 328 328 329 330 331 330 332 334 335 335 332 333 334 333 332
292 287 291 291 291 292 294 297 298 300 301 298 301 301 308 313 313 317 322 322 321 322 323 325 325 327 329 330 328 327 327 329 331 330 332 333 334 335 333 331 334 332 333 330
295 287 290 289 292 291 291 296 299 300 302 302 303 303 313 314 315 317 320 320 320 321 323 324 326 328 328 328 325 325 327 328 330 331 331 331 332 332 331 332 334 333 331 331
292 290 288 285 289 289 289 297 299 301 305 305 300 307 312 312 314 316 319 321 320 321 323 324 326 328 329 327 327 326 327 328 329 330 330 331 331 330 331 331 330 331 331 332
291 290 289 287 289 282 298 305 305 303 306 308 307 309 311 312 313 315 319 321 321 323 324 326 327 330 330 327 326 328 327 326 327 329 327 328 328 328 330 330 331 333 333 333
296 291 287 285 286 291 297 300 303 302 302 309 308 310 311 313 313 316 319 320 321 326 328 328 330 331 331 327 327 326 325 325 326 328 329 328 328 329 328 329 330 333 334 333
295 295 289 288 282 286 296 303 308 309 298 309 310 310 311 311 304 312 319 321 322 326 331 329 331 332 330 329 327 326 324 325 326 328 328 329 330 330 330 333 334 335 335 335
290 290 287 287 285 291 299 303 308 296 297 310 311 311 312 311 313 317 320 321 323 326 329 331 332 331 331 330 328 326 324 324 327 329 330 331 332 335 336 336 336 336 330 332
287 287 288 289 287 284 299 303 298 304 310 310 311 312 312 315 317 318 319 321 323 324 328 331 331 332 330 329 326 325 325 327 327 330 330 332 334 331 333 336 337 335 332 331
287 290 286 290 288 295 300 302 304 307 307 310 311 312 314 316 316 319 320 322 322 324 327 330 331 331 329 328 326 325 327 327 327 330 332 332 333 334 334 333 334 331 334 331
292 295 290 293 294 296 300 304 307 308 308 310 312 313 314 314 317 318 321 324 323 325 325 331 331 331 328 327 327 328 328 326 326 330 333 333 332 333 334 331 330 328 330 328
293 294 291 293 295 298 300 303 304 306 308 309 311 312 313 315 315 318 319 322 325 326 327 331 331 331 329 328 326 328 327 326 327 330 332 333 332 334 333 333 328 329 329 324
297 293 291 290 297 297 299 303 305 305 306 308 309 310 313 314 315 318 318 320 322 327 328 329 333 333 331 327 326 326 327 326 329 328 329 329 330 330 331 329 325 298 303 301
Wind_Speed
22 18 27 41 30 30 27 32 33 28 27 29 25 27 29 22 21 8 25 22 19 20 14 14 7 7 10 4 4 7 7 10 11 9 9 7 6 4 2 3 5 4 3 2
21 29 39 22 32 29 31 32 31 28 26 24 22 23 23 22 23 20 17 14 13 15 17 18 11 9 7 7 5 6 7 9 10 7 7 6 5 6 5 4 6 6 5 5
24 37 23 31 29 30 32 31 26 30 23 26 22 25 24 23 24 23 19 20 18 20 21 19 16 8 9 8 7 7 7 9 10 10 5 4 4 5 4 4 4 5 5 2
24 26 32 30 33 32 29 27 28 26 22 18 19 19 23 18 21 20 21 18 18 17 14 15 15 14 11 10 9 9 8 11 8 9 6 7 4 3 4 4 4 5 5 5
32 23 27 33 36 29 34 24 26 26 24 21 24 17 18 17 19 17 18 22 20 19 16 15 12 15 13 12 10 9 11 10 8 7 7 5 5 4 3 3 8 4 4 3
29 26 29 30 29 31 25 26 28 25 19 18 23 21 17 17 17 20 19 15 14 11 11 10 16 16 14 12 12 11 12 10 10 5 8 7 5 4 4 3 4 3 3 2
23 26 30 28 28 29 31 22 17 17 17 23 18 21 16 19 19 21 16 11 8 6 8 19 17 15 14 14 13 12 12 12 9 7 7 5 6 3 4 2 2 4 3 3
16 20 28 29 33 27 30 25 15 27 14 18 23 22 21 21 23 20 5 7 7 11 11 15 14 14 14 15 15 14 13 12 10 9 7 6 6 4 2 3 4 2 3 4
11 17 22 30 30 28 28 30 26 22 21 16 15 19 26 20 16 11 8 8 11 11 11 14 14 13 15 15 14 15 14 12 10 9 6 6 5 6 5 4 4 3 4 4
5 14 19 26 29 33 31 22 26 17 23 21 21 18 5 15 10 13 10 13 14 14 14 14 13 14 14 14 14 13 12 12 10 9 7 6 5 6 5 3 5 4 4 2
11 7 22 27 25 28 23 24 27 18 17 15 14 10 9 11 2 13 12 14 18 16 15 14 14 15 14 14 13 12 11 11 10 9 6 10 6 6 5 4 6 4 2 4
13 5 13 25 21 27 29 25 23 19 21 16 14 11 9 4 5 3 13 18 17 16 16 15 15 15 15 14 13 11 10 10 9 9 10 7 6 6 5 4 6 5 4 4
5 7 11 12 16 18 20 28 24 21 12 19 18 10 8 10 8 5 10 17 15 17 17 16 16 14 14 13 13 12 11 10 10 9 11 7 6 6 5 5 5 7 5 4
3 6 16 10 6 18 17 28 31 25 19 17 18 6 13 11 9 3 16 16 16 16 16 16 14 14 13 13 12 12 10 10 9 10 11 7 7 6 5 7 4 4 6 5
1 7 17 19 17 17 29 25 32 25 26 23 19 12 15 15 13 6 9 15 16 17 16 15 13 13 13 12 12 11 10 10 8 9 11 9 6 7 7 6 7 5 4 4
8 5 16 12 14 14 28 30 23 28 25 25 20 17 13 18 14 12 10 15 16 16 16 15 14 14 13 13 12 10 10 10 8 13 11 9 7 10 7 5 5 5 4 6
12 4 8 7 2 11 21 23 22 30 24 26 10 8 18 18 18 12 8 13 13 14 15 14 14 13 12 11 10 10 10 10 8 10 9 9 8 10 8 7 6 5 3 3
13 9 5 2 10 7 9 15 22 21 24 19 7 14 17 19 16 13 12 11 4 15 14 13 12 12 12 11 11 9 11 10 10 10 10 10 10 9 8 7 6 6 4 3
12 5 4 2 4 13 17 13 9 20 10 18 16 17 18 12 10 15 11 9 8 8 7 12 12 13 11 11 12 11 11 10 11 11 11 11 10 9 7 7 7 6 4 5
5 7 1 2 5 2 6 23 25 19 12 14 14 13 12 5 5 8 9 8 9 8 8 14 14 14 12 11 12 10 11 11 10 11 11 11 11 9 8 7 7 5 4 4
3 2 4 2 4 7 16 26 23 3 4 8 14 12 12 10 8 4 6 6 7 7 8 15 15 13 12 11 11 11 11 10 10 11 12 11 11 9 8 7 6 4 7 6
4 5 1 6 5 7 22 16 11 2 6 11 12 12 9 8 8 6 5 5 6 6 6 15 14 14 13 13 12 11 11 9 10 11 12 12 10 10 8 6 4 6 8 7
2 5 3 6 3 9 15 8 14 10 13 14 12 11 10 9 9 7 5 4 5 5 7 11 14 15 13 13 12 11 11 10 10 11 10 12 10 10 11 7 5 5 6 6
7 11 4 2 7 13 13 10 12 14 14 13 13 11 9 8 10 8 6 3 3 6 8 9 15 16 14 14 13 10 12 11 12 10 10 12 10 10 11 8 5 6 5 6
3 7 7 4 10 8 14 14 12 13 12 11 10 9 9 10 10 11 9 11 10 3 6 8 13 14 15 14 14 12 13 12 10 10 10 10 8 6 8 5 4 4 3 4
4 5 3 1 7 3 7 9 13 9 9 8 8 9 9 11 10 12 11 10 12 11 5 7 11 14 15 15 14 13 14 13 11 11 9 9 8 7 8 7 5 12 9 9
Wind_Direction
226 216 221 219 220 240 235 236 246 250 249 247 252 256 265 280 278 224 260 260 250 257 280 288 246 264 280 116 139 146 142 138 151 159 168 176 174 161 222 171 173 162 140 251
228 220 224 232 229 235 247 250 253 262 259 261 265 273 267 255 262 276 262 262 285 288 287 280 272 274 130 136 118 119 135 140 154 151 163 175 164 179 190 181 173 162 180 192
223 236 226 232 233 234 235 237 247 259 271 273 280 273 269 271 277 275 279 283 269 261 254 255 257 224 138 134 133 144 156 151 150 149 165 164 173 167 175 149 140 174 163 115
247 241 241 228 234 230 243 232 245 250 253 258 255 270 253 253 258 258 258 257 255 257 254 244 233 134 141 133 138 147 151 145 155 143 171 143 152 158 172 194 109 125 171 160
242 245 234 240 237 226 242 245 249 246 249 258 253 259 267 274 274 275 262 253 247 240 234 234 246 130 134 131 136 140 138 151 157 151 138 145 172 169 166 117 123 121 119 91
256 250 257 239 244 249 242 240 246 253 255 248 240 245 262 260 274 275 273 273 288 264 206 216 113 124 128 129 129 138 146 164 138 153 137 174 203 70 105 138 122 125 114 161
244 246 253 254 248 233 240 226 234 232 229 244 244 244 265 268 265 274 274 274 293 29 162 107 124 134 133 135 141 145 159 136 151 151 134 173 101 92 100 118 171 148 125 201
272 265 226 240 241 232 230 233 222 220 218 245 244 248 255 250 252 250 269 269 129 106 107 121 127 128 137 139 146 153 150 151 161 148 159 127 133 169 209 138 99 130 173 118
314 267 270 217 241 236 220 228 239 243 230 256 259 230 231 246 251 243 205 232 118 127 127 126 129 138 141 143 156 148 150 158 159 152 150 141 149 98 99 93 91 146 117 165
311 292 290 283 215 245 241 214 227 222 232 231 235 244 198 201 247 197 200 153 144 133 140 136 139 142 137 150 143 151 152 155 155 152 147 156 130 121 116 123 114 143 143 201
275 203 275 290 249 216 226 232 217 241 225 239 250 249 187 210 233 151 194 170 137 141 141 141 144 135 143 142 144 145 152 156 151 168 154 126 137 131 127 130 116 136 116 100
313 266 263 272 280 217 232 224 230 220 209 238 262 259 90 133 119 41 203 140 132 141 139 145 139 144 150 148 149 157 153 157 167 167 133 134 150 120 135 133 138 132 171 186
10 241 262 261 251 247 244 221 234 232 231 212 235 234 158 179 175 183 143 122 133 133 144 146 145 153 152 150 155 157 165 159 173 156 141 142 138 119 135 151 164 165 189 197
349 246 263 273 304 344 317 223 230 220 211 228 222 134 155 148 117 173 126 130 142 148 147 143 152 153 154 155 161 158 171 157 179 166 139 135 135 143 152 142 192 180 168 187
115 275 277 256 253 293 290 289 228 215 201 222 229 168 152 132 112 123 118 138 141 143 151 146 155 156 153 158 156 160 163 164 175 140 125 128 142 134 152 161 197 157 166 185
207 285 293 280 261 276 283 283 266 219 196 222 239 203 144 112 133 135 149 138 151 147 147 157 158 156 158 158 161 160 162 151 172 123 136 150 159 155 158 192 141 154 153 110
279 317 314 264 98 294 270 242 245 208 195 216 212 194 132 94 91 67 55 140 153 148 155 160 160 158 157 158 160 161 152 150 167 140 146 167 138 139 165 157 135 113 119 118
269 290 276 302 148 234 245 237 249 197 182 208 203 83 80 104 100 86 52 17 69 154 153 157 158 151 151 156 151 165 149 162 173 160 159 137 149 146 161 125 128 130 115 120
234 237 271 258 285 314 309 343 341 193 63 27 46 62 74 63 107 68 43 18 349 353 167 152 153 148 149 157 150 167 159 170 179 161 145 152 142 156 142 134 124 128 158 173
96 224 122 197 261 273 33 327 328 118 95 14 61 51 45 8 152 69 3 343 334 324 306 147 151 144 150 157 153 167 164 179 181 158 154 150 148 136 137 128 125 152 157 128
251 162 228 248 280 334 341 323 309 253 106 43 61 49 39 49 44 356 323 321 311 301 291 142 147 150 151 153 157 176 165 184 181 160 147 148 137 121 120 123 139 160 117 121
336 322 98 194 135 264 329 342 53 323 56 54 57 51 50 40 31 15 322 304 302 300 269 150 148 147 152 158 166 186 163 186 179 162 154 138 135 138 128 131 140 122 121 118
51 356 318 31 129 250 286 27 359 8 46 41 48 34 33 31 23 8 336 309 276 254 252 172 154 148 157 164 174 188 164 189 179 163 145 136 155 135 137 143 157 124 129 143
353 359 11 230 23 334 334 19 31 19 19 19 19 32 28 14 24 355 351 323 247 226 233 214 156 156 164 169 177 190 166 192 176 159 148 150 168 149 150 153 179 154 186 172
16 352 337 27 24 339 356 352 22 8 13 14 3 7 18 15 18 357 2 353 349 295 205 227 166 162 164 172 177 189 174 191 169 157 157 157 166 165 154 158 185 185 63 119
19 25 360 23 275 277 307 324 341 8 4 18 343 357 10 23 11 5 4 9 332 324 286 230 171 161 164 174 179 190 181 187 164 160 163 169 174 184 164 161 135 36 74 103